Location: Maiden
(35.5760°N, 81.2120°W)
Time: 01:57:33
(UTC-04:00)

A-11 Canister half - Pass Details

Date: 07 August 2020
Orbit: 1527 x 1682 km, 47.3° (Epoch: 25 September)

Event Time Altitude Azimuth Distance (km) Brightness Sun altitude
Rises 13:43:22 0° 236° (SW) 4,897 11.8 70.4°
Reaches altitude 10° 13:46:30 10° 237° (WSW) 3,922 11.5 70.2°
Maximum altitude 13:56:40 84° 326° (NW) 1,691 10.8 69.7°
Drops below altitude 10° 14:06:51 10° 55° (NE) 3,928 11.1 68.9°
Sets 14:10:00 0° 57° (ENE) 4,905 11.5 68.7°
